[[{"header":{"parameterUnit":"m.s-1","parameterCategory":1,"la1":30.2991,"la2":30.254,"lo1":-89.0895,"lo2":-89.0444,"dy":0.0017,"dx":0.0017,"nx":28,"ny":28,"refTime":"2024-09-28T09:00:00:Z","depth":0,"parameterNumber":2,"parameterNumberName":"U-component_of_WINDS"},"data":[0,0,0,0,0,0,0,0,0,0,0,0,0,0,0,0,0,0,0,0,0,0,0,0,0,0,0,0,0,0,0,0,0,0,0,0,0,0,0,0,0,0,0,0,0,0,0,0,0,0,0,0,0,0,0,0,0,0,3.8933,3.8934,0,3.9041,3.9043,3.9044,3.8999,3.8996,3.8994,3.8991,3.9103,3.9109,3.9114,0,0,0,0,0,0,0,0,0,0,0,0,0,3.8686,3.8691,3.8933,3.8934,3.8935,3.9041,3.9043,3.9044,3.8999,3.8996,3.8993,3.899,3.9102,3.9108,3.9115,0,0,0,0,0,0,0,0,0,0,0,0,0,3.8794,3.8693,3.8932,3.8926,3.8926,3.9041,3.9043,3.9044,3.9,3.8996,3.8992,3.8989,3.91,3.9107,3.9115,3.9243,0,0,3.914,3.9144,0,0,0,0,0,0,0,0,3.8788,3.8803,3.8925,3.8926,3.8927,3.9003,3.8997,3.9111,3.9001,3.8972,3.8991,3.8987,3.9073,3.9083,3.9112,3.9248,3.9253,3.9141,3.9146,3.9149,3.9152,0,0,0,0,0,0,0,3.8781,3.8798,3.8976,3.8927,3.8928,3.8917,3.8928,3.9018,3.9043,3.8974,3.8971,3.8985,3.9073,3.9104,3.9114,3.9255,3.9141,3.9148,3.9153,3.9156,3.9499,3.9504,0,0,0,0,0,0,3.8773,3.8792,3.8972,3.8979,3.8847,3.8925,3.8937,3.8982,3.9042,3.9047,3.8988,3.8982,3.9092,3.9105,3.9118,3.927,3.9149,3.9157,3.9161,3.9495,3.95,3.9505,0,0,0,0,0,0,3.8768,3.8789,3.8968,3.8885,3.8907,3.8933,3.8984,3.8987,3.9018,3.9052,3.9056,3.9016,3.909,3.9107,3.9212,3.9273,3.916,3.9168,3.949,3.9497,3.9503,3.9575,0,0,0,0,0,0,3.8761,3.8788,3.8837,3.8886,3.8911,3.906,3.8988,3.8991,3.9032,3.9025,3.9079,3.9084,3.9088,3.92,3.922,3.9282,3.9174,3.9485,3.9493,3.9501,3.9567,3.9583,3.9596,0,0,0,0,0,3.8752,3.8853,3.8839,3.8861,3.8973,3.9063,3.9078,3.908,3.9037,3.9086,3.9108,3.9083,3.9264,3.9211,3.9233,3.9299,3.9481,3.9491,3.95,3.956,3.958,3.9596,0,0,0,0,0,0,3.881,3.8859,3.8845,3.8965,3.901,3.9056,3.9117,3.91,3.9159,3.9151,3.9151,3.9163,3.9271,3.9296,3.9237,3.9425,3.9366,3.938,3.9404,3.9423,3.9437,3.9428,3.9181,0,0,0,0,0,3.8837,3.8906,3.8946,3.9048,3.9071,3.9091,3.913,3.9128,3.9175,3.9194,3.9224,3.9271,3.9338,3.9382,3.9446,3.9571,3.9581,3.9627,3.9642,3.9654,3.9665,3.9732,3.9752,3.9537,3.9537,3.9536,0,0,3.8893,3.8928,3.8972,3.906,3.9095,3.9166,3.9107,3.9186,3.9238,3.9206,3.9306,3.933,3.9383,3.9498,3.955,3.9521,3.9728,3.9666,3.9675,3.9681,3.9744,3.9764,3.9782,3.9543,3.9542,3.9541,0,0,3.903,3.9065,3.9153,3.9189,3.9242,3.9255,3.9276,3.9324,3.9338,3.9439,3.9416,3.9479,3.9596,3.9633,3.9668,3.982,3.9798,3.9841,3.9916,3.9981,3.9998,4.0013,4.0065,4.0084,3.9853,3.9853,3.9853,0,3.9093,3.9199,3.92,3.928,3.9319,3.9293,3.9381,3.9417,3.9489,3.9516,3.9483,3.9627,3.9661,3.9784,3.9821,3.9851,3.9874,3.9833,3.9995,4.001,4.0024,4.0074,4.0094,3.9858,3.9857,3.9857,3.9856,0,3.9272,3.9347,3.9411,3.948,3.9527,3.9611,3.9624,3.9671,3.9665,3.9681,3.9783,3.9823,3.9893,3.9923,3.9918,4.0045,4.0025,3.9994,3.9935,4.0049,4.0096,4.0115,3.9864,3.9863,3.9861,3.986,0,0,3.9448,3.9516,3.954,3.957,3.9627,3.9685,3.9768,3.9836,3.9876,3.9927,3.9995,4.0094,4.0065,4.0104,4.0104,4.0161,4.0276,4.0123,4.0124,4.0148,4.0416,4.0437,4.0459,4.0263,4.0267,4.027,4.041,0,3.9588,3.9732,3.9735,3.9867,3.9935,3.9911,3.9983,4.0026,4.0043,4.0103,4.0122,4.0191,4.015,4.0173,4.0228,4.025,4.0329,4.0241,4.0325,4.0328,4.031,4.0483,4.0506,4.0637,4.0429,4.0432,4.0434,0,3.977,3.9826,3.9964,4.001,4.0039,4.0103,4.0166,4.0224,4.0272,4.028,4.0324,4.0315,4.0398,4.0338,4.0453,4.0392,4.0428,4.0444,4.0449,4.0455,4.0386,4.0491,4.0679,4.0697,4.0463,4.0461,4.0459,0,3.9881,3.9991,4.0087,4.0115,4.0172,4.0217,4.0243,4.0287,4.0328,4.0383,4.0409,4.0474,4.0509,4.0559,4.0567,4.0523,4.0682,4.0623,4.069,4.069,4.0722,4.072,4.0915,4.075,4.0749,4.0749,4.0749,0,4.0036,4.0121,4.0138,4.0197,4.0291,4.0294,4.0388,4.041,4.045,4.0512,4.0498,4.0557,4.0565,4.0627,4.0634,4.0727,4.0744,4.0752,4.0752,4.0752,4.075,4.0773,4.0763,4.0754,4.0753,4.0752,4.0751,0,4.0175,4.019,4.0293,4.0338,4.0352,4.0419,4.0458,4.0514,4.053,4.0609,4.0628,4.0653,4.0724,4.0738,4.0823,4.0828,4.0938,4.0931,4.0921,4.0919,4.0985,4.0977,4.1199,4.1228,4.1046,4.1048,4.1049,0,4.0271,4.0335,4.0388,4.0428,4.0456,4.0522,4.0563,4.0569,4.0613,4.0672,4.0721,4.0791,4.0846,4.0962,4.0987,4.1051,4.1044,4.1117,4.1053,4.105,4.1042,4.1037,4.1042,4.1129,4.1131,4.1132,4.1134,0,4.0439,4.0443,4.0503,4.0565,4.0615,4.0664,4.0711,4.0746,4.0758,4.0807,4.088,4.0923,4.1009,4.1078,4.1142,4.1169,4.1153,4.1154,4.1172,4.1171,4.1161,4.1165,4.0951,4.1148,4.1147,4.1146,4.1145,4.1144,4.0558,4.0613,4.0658,4.0725,4.0761,4.0805,4.0859,4.0882,4.0942,4.1012,4.1012,4.1091,4.1137,4.1221,4.1252,4.1314,4.129,4.1318,4.1324,4.133,4.1335,4.1154,4.1326,4.1325,4.1325,4.1325,4.1324,0,4.0723,4.075,4.0812,4.0878,4.093,4.0911,4.0962,4.1007,4.1076,4.112,4.1175,4.1258,4.1324,4.1355,4.1421,4.1464,4.1458,4.1481,4.1476,4.1482,4.1353,4.1329,4.1484,4.1484,4.1484,4.1484,4.1484,4.1484,4.0815,4.0907,4.0916,4.1026,4.1053,4.113,4.116,4.12,4.1235,4.1328,4.1383,4.1402,4.1441,4.1509,4.1569,4.1577,4.16,4.1626,4.1629,4.1508,4.1491,4.1476,4.1453,4.1632,4.1632,4.1753,4.1754,4.1755]},{"header":{"parameterUnit":"m.s-1","parameterCategory":1,"la1":30.2991,"la2":30.254,"lo1":-89.0895,"lo2":-89.0444,"dy":0.0017,"dx":0.0017,"nx":28,"ny":28,"refTime":"2024-09-28T09:00:00:Z","depth":0,"parameterNumber":3,"parameterNumberName":"V-component_of_WINDS"},"data":[0,0,0,0,0,0,0,0,0,0,0,0,0,0,0,0,0,0,0,0,0,0,0,0,0,0,0,0,0,0,0,0,0,0,0,0,0,0,0,0,0,0,0,0,0,0,0,0,0,0,0,0,0,0,0,0,0,0,0.96,0.9602,0,0.9713,0.9715,0.9716,0.976,0.976,0.976,0.976,0.9878,0.9881,0.9885,0,0,0,0,0,0,0,0,0,0,0,0,0,0.9425,0.9428,0.96,0.9602,0.9603,0.9713,0.9715,0.9716,0.976,0.976,0.976,0.9759,0.9877,0.9881,0.9885,0,0,0,0,0,0,0,0,0,0,0,0,0,0.9516,0.9429,0.96,0.9638,0.9643,0.9713,0.9715,0.9717,0.9761,0.976,0.976,0.9759,0.9875,0.988,0.9885,0.9926,0,0,0.9901,0.9903,0,0,0,0,0,0,0,0,0.9511,0.9522,0.9631,0.9636,0.9641,0.9722,0.9696,0.9787,0.9761,0.9716,0.976,0.9759,0.9827,0.9836,0.9858,0.9932,0.9937,0.9902,0.9905,0.9907,0.9908,0,0,0,0,0,0,0,0.9504,0.9518,0.9645,0.9633,0.9639,0.9651,0.9663,0.9714,0.9773,0.972,0.9723,0.9736,0.9829,0.9853,0.9861,0.9939,0.9901,0.9906,0.9909,0.9911,1.0052,1.0053,0,0,0,0,0,0,0.9491,0.9512,0.9641,0.9648,0.9573,0.9654,0.9668,0.9697,0.9772,0.9783,0.9736,0.9738,0.9844,0.9855,0.9865,0.9918,0.9907,0.9912,0.9915,1.0051,1.0052,1.0053,0,0,0,0,0,0,0.9487,0.9502,0.9637,0.9581,0.9599,0.9658,0.9689,0.9699,0.9723,0.9784,0.9795,0.9749,0.9844,0.9858,0.9911,0.9923,0.9914,0.9919,1.0051,1.0052,1.0052,1.0024,0,0,0,0,0,0,0.9482,0.9501,0.9516,0.9581,0.9602,0.9679,0.969,0.9702,0.9731,0.9734,0.98,0.981,0.9845,0.9903,0.9916,0.993,0.9923,1.005,1.0051,1.0052,1.0025,1.0024,1.0024,0,0,0,0,0,0.9476,0.9504,0.9517,0.9532,0.9623,0.968,0.9692,0.9731,0.9732,0.9749,0.9788,0.9808,0.9919,0.9908,0.9923,0.9939,1.0049,1.0051,1.0052,1.0025,1.0024,1.0024,0,0,0,0,0,0,0.9441,0.9514,0.9528,0.9579,0.9623,0.9687,0.971,0.9729,0.9775,0.9776,0.9823,0.9837,0.9886,0.9918,0.9903,0.9982,0.9986,0.999,0.996,0.996,0.996,0.9951,0.9927,0,0,0,0,0,0.9438,0.9478,0.954,0.9579,0.96,0.9651,0.9677,0.9703,0.9751,0.977,0.9814,0.986,0.9905,0.9935,0.998,1.0029,1.0044,1.0048,1.0047,1.0047,1.0051,1.0079,1.0082,1.0058,1.0058,1.0058,0,0,0.9435,0.948,0.9502,0.9573,0.961,0.9651,0.9666,0.9709,0.974,0.9777,0.9829,0.9862,0.9917,0.9968,0.9993,0.9996,1.006,1.0049,1.0048,1.0052,1.0081,1.0083,1.0085,1.0059,1.0058,1.0058,0,0,0.945,0.9487,0.9524,0.956,0.9616,0.9649,0.9658,0.972,0.9743,0.9796,0.9824,0.9862,0.9939,0.9977,1.0007,1.0035,1.0055,1.0048,1.0048,1.0075,1.0077,1.0079,1.0089,1.0093,1.0052,1.0052,1.0052,0,0.9438,0.95,0.954,0.9581,0.9611,0.9646,0.9683,0.9717,0.9785,0.9806,0.9808,0.9906,0.9945,1.0005,1.0012,1.0035,1.0046,1.0041,1.0073,1.0076,1.0078,1.0089,1.0092,1.005,1.0051,1.0051,1.0051,0,0.9484,0.9527,0.9549,0.9613,0.9646,0.9685,0.9731,0.976,0.9783,0.9816,0.9869,0.9918,0.9973,0.9989,1.0013,1.0053,1.0054,1.0064,1.0069,1.0079,1.0089,1.0094,1.0049,1.0049,1.0049,1.005,0,0,0.948,0.9565,0.9572,0.9602,0.9665,0.97,0.974,0.9794,0.9817,0.9863,0.9899,0.9963,0.9973,1.0006,1.0034,1.0058,1.0077,1.0066,1.0068,1.0067,1.0126,1.0118,1.0122,1.0091,1.0092,1.0093,1.0121,0,0.9504,0.9577,0.9614,0.9672,0.9711,0.9745,0.978,0.9823,0.9855,0.9895,0.9931,0.9975,0.9985,1.0005,1.003,1.007,1.009,1.0068,1.0125,1.0127,1.0111,1.0127,1.0119,1.0144,1.0126,1.0126,1.0127,0,0.9541,0.9585,0.9646,0.9705,0.9724,0.9755,0.9807,0.9843,0.9893,0.9915,0.9952,0.9979,1.0023,1.0024,1.0086,1.0071,1.0096,1.0119,1.0121,1.0128,1.0128,1.0135,1.0153,1.0156,1.0134,1.0133,1.0133,0,0.9532,0.9607,0.9654,0.9678,0.9748,0.9769,0.9799,0.9848,0.9878,0.9924,0.9943,0.9994,1.0022,1.006,1.01,1.0097,1.0159,1.0163,1.0179,1.0178,1.0191,1.019,1.0213,1.0207,1.0207,1.0207,1.0207,0,0.9555,0.9591,0.9651,0.9679,0.9721,0.9763,0.9804,0.9837,0.988,0.9916,0.9948,0.9982,1.0032,1.0072,1.0104,1.0151,1.0163,1.0183,1.0191,1.018,1.0178,1.0198,1.0198,1.0208,1.0207,1.0207,1.0207,0,0.9552,0.9594,0.9647,0.9708,0.9724,0.9752,0.9805,0.9835,0.9868,0.9914,0.9927,0.9979,1.0028,1.0072,1.0136,1.0158,1.0206,1.0216,1.0189,1.0193,1.0207,1.0205,1.0245,1.0252,1.024,1.024,1.024,0,0.9564,0.9593,0.9657,0.9683,0.9712,0.9754,0.9784,0.9827,0.9857,0.9916,0.9938,0.9989,1.0032,1.0108,1.0153,1.0202,1.0214,1.0224,1.0222,1.021,1.0215,1.0213,1.0216,1.0224,1.0224,1.0224,1.0224,0,0.9581,0.96,0.9642,0.9691,0.9726,0.9767,0.9809,0.9828,0.9879,0.9911,0.9961,0.9994,1.006,1.011,1.0164,1.0197,1.0219,1.0224,1.0231,1.022,1.0204,1.0213,1.0188,1.0223,1.0223,1.0223,1.0223,1.0223,0.9586,0.9613,0.9662,0.9708,0.9744,0.9782,0.9813,0.985,0.9892,0.9948,0.997,1.0021,1.0071,1.0146,1.0178,1.0218,1.0223,1.0232,1.0234,1.0236,1.0234,1.0196,1.0229,1.0229,1.0229,1.0229,1.0229,0,0.9605,0.9638,0.9679,0.9737,0.9773,0.979,0.9837,0.9866,0.991,0.9954,0.9995,1.0052,1.0101,1.0149,1.02,1.0224,1.0235,1.0236,1.0235,1.0242,1.0227,1.0217,1.0226,1.0226,1.0226,1.0226,1.0226,1.0226,0.9619,0.9665,0.969,0.9755,0.9788,0.9837,0.9863,0.9899,0.9934,0.9996,1.0036,1.0067,1.0113,1.0168,1.0213,1.0226,1.0244,1.0242,1.0258,1.0243,1.0243,1.0243,1.0233,1.0245,1.0245,1.0269,1.0269,1.0269]}]]